User: anonymous   Login
Location: Peebles
(55.6412°N, 3.1714°W)
Time: 06:52:42
(UTC+00:00)
Language:

Okean O Rocket - Orbit

View from above orbital plane
View from above orbital plane
View from above satellite
View from above satellite

Ground track
Ground track

The orbit data is extracted from the following two-line orbital elements,

1 25861U 99039B   21337.05361873  .00000113  00000-0  22863-4 0  9991
2 25861  98.1961 355.6290 0014449 241.8134 173.9165 14.78687545206615
Epoch (UTC): 03 December 2021 01:17:12
Eccentricity: 0.0014449
inclination: 98.1961°
perigee height: 623 km
apogee height: 643 km
right ascension of ascending node: 355.6290°
argument of perigee: 241.8134°
revolutions per day: 14.78687545
mean anomaly at epoch: 173.9165°
orbit number at epoch: 20661

The dashed part of the orbit path shows where the satellite is in the earth's shadow,  

DLR